User: anonymous   Login
Location: Unspecified
(0.0000°N, 0.0000°E)
Time: 00:00:11
(UTC+00:00)
Language:

FALCON 9 R/B - Orbit

View from above orbital plane
View from above orbital plane
View from above satellite
View from above satellite

Ground track
Ground track

The orbit data is extracted from the following two-line orbital elements,

1 37253U 10066K   15063.57473490  .00015893  00000-0  13726-2 0  9994
2 37253 034.5244 148.8360 4336571 204.6004 126.4382 06.80497868103184
Epoch (UTC): 04 March 2015 13:47:37
Eccentricity: 0.4336571
inclination: 34.5244°
perigee height: 284 km
apogee height: 10486 km
right ascension of ascending node: 148.8360°
argument of perigee: 204.6004°
revolutions per day: 6.80497868
mean anomaly at epoch: 126.4382°
orbit number at epoch: 10318

The dashed part of the orbit path shows where the satellite is in the earth's shadow,  

DLR